Pensacola, FL

11:15 AM CDT on July 27, 2016 (GMT -0500)
Pensacola Naval Air Station

Weather History for KNPA - March, 2014

Change the Weather History Date:

Wednesday, March 5, 2014

  Actual Average Record
Temperature  
Mean Temperature 52 °F -  
Max Temperature 61 °F 66 °F 73 °F (1997)
Min Temperature 44 °F 47 °F 25 °F (2002)
Degree Days  
Heating Degree Days 12    
Growing Degree Days 2 (Base 50)    
Moisture  
Dew Point 47 °F    
Average Humidity 86    
Maximum Humidity 97    
Minimum Humidity 67    
Precipitation  
Precipitation 0.13 in - - ()
Sea Level Pressure  
Sea Level Pressure 30.06 in    
Wind  
Wind Speed 8 mph (NE)    
Max Wind Speed 12 mph    
Max Gust Speed -    
Visibility 8 miles    
Events Rain , Thunderstorm    
Averages and records for this station are not official NWS values.
T = Trace of Precipitation, MM = Missing Value Source: NWS Daily Summary

Daily Weather History Graph

Daily Weather History Graph

Search for Another Location

Airport or City:

Trip Planner

Search our weather history database for the weather conditions in past years. The results will help you decide how hot, cold, wet, or windy it might be!

Date:

Astronomy

Mar. 05, 2014 Rise Set
Actual Time 6:10 AM CST 5:50 PM CST
Civil Twilight 5:46 AM CST 6:15 PM CST
Nautical Twilight 5:19 AM CST 6:42 PM CST
Astronomical Twilight 4:51 AM CST 7:10 PM CST
Moon 8:57 AM CST (3/5) 10:36 PM CST (3/5)
Length of Visible Light 12h 28m
Length of Day
11h 40m
Waxing Crescent, 23% of the Moon is Illuminated
Mar 5
Waxing Crescent
Mar 8
First Quarter
Mar 16
Full
Mar 23
Last Quarter
Mar 30
New

Hourly Weather History & Observations

Time (CST) Temp. Windchill Dew Point Humidity Pressure Visibility Wind Dir Wind Speed Gust Speed Precip Events Conditions
12:56 AM 44.1 °F 40.1 °F 43.0 °F 96% 30.08 in 5.0 mi North 6.9 mph - N/A Rain Light Rain
1:56 AM 44.1 °F 40.8 °F 43.0 °F 96% 30.07 in 8.0 mi NE 5.8 mph - N/A Rain Light Rain
2:56 AM 44.1 °F 39.0 °F 43.0 °F 96% 30.05 in 8.0 mi NE 9.2 mph - N/A Rain Light Rain
3:56 AM 45.0 °F 40.6 °F 44.1 °F 97% 30.06 in 9.0 mi NNE 8.1 mph - N/A   Overcast
4:56 AM 45.0 °F 39.3 °F 44.1 °F 97% 30.05 in 9.0 mi NNE 11.5 mph - N/A   Overcast
5:56 AM 45.0 °F 40.6 °F 43.0 °F 93% 30.06 in 9.0 mi NE 8.1 mph - N/A   Overcast
6:56 AM 46.0 °F 42.5 °F 44.1 °F 93% 30.10 in 5.0 mi NE 6.9 mph - N/A   Overcast
7:05 AM 46.0 °F 43.1 °F 44.1 °F 93% 30.10 in 2.5 mi NNE 5.8 mph - 0.00 in Rain Light Rain
7:12 AM 46.0 °F 41.9 °F 44.1 °F 93% 30.10 in 1.5 mi NE 8.1 mph - 0.00 in Rain Light Rain
7:56 AM 46.0 °F 41.0 °F 45.0 °F 96% 30.12 in 1.5 mi NNE 10.4 mph - 0.04 in Rain Light Rain
8:04 AM 46.0 °F 41.0 °F 45.0 °F 96% 30.11 in 2.0 mi NE 10.4 mph - 0.00 in Rain Light Rain
8:17 AM 46.0 °F 40.6 °F 45.0 °F 96% 30.11 in 3.0 mi NNE 11.5 mph - 0.00 in   Overcast
8:43 AM 48.0 °F - 46.0 °F 93% 30.11 in 10.0 mi NE 10.4 mph - 0.00 in   Overcast
8:56 AM 48.0 °F - 45.0 °F 89% 30.11 in 10.0 mi NE 9.2 mph - 0.00 in   Overcast
9:42 AM 51.1 °F - 46.9 °F 86% 30.10 in 10.0 mi NE 9.2 mph - N/A   Mostly Cloudy
9:56 AM 50.0 °F - 46.0 °F 86% 30.10 in 10.0 mi NE 6.9 mph - N/A   Mostly Cloudy
10:06 AM 52.0 °F - 46.9 °F 83% 30.09 in 10.0 mi NE 10.4 mph - N/A   Mostly Cloudy
10:56 AM 55.0 °F - 48.0 °F 77% 30.08 in 10.0 mi NE 5.8 mph - N/A   Mostly Cloudy
11:56 AM 54.0 °F - 46.9 °F 77% 30.06 in 10.0 mi East 9.2 mph - N/A   Mostly Cloudy
12:56 PM 57.0 °F - 48.0 °F 72% 30.04 in 10.0 mi ENE 4.6 mph - N/A   Mostly Cloudy
1:56 PM 61.0 °F - 50.0 °F 67% 29.99 in 10.0 mi ENE 8.1 mph - N/A   Mostly Cloudy
2:56 PM 61.0 °F - 50.0 °F 67% 30.01 in 10.0 mi East 9.2 mph - N/A   Mostly Cloudy
3:56 PM 57.0 °F - 50.0 °F 77% 30.01 in 10.0 mi ESE 10.4 mph - N/A   Overcast
4:56 PM 57.0 °F - 51.1 °F 81% 30.03 in 10.0 mi SE 4.6 mph - N/A   Overcast
5:56 PM 55.9 °F - 51.1 °F 84% 30.02 in 10.0 mi ENE 5.8 mph - N/A   Overcast
6:56 PM 55.9 °F - 52.0 °F 87% 30.03 in 10.0 mi East 5.8 mph - N/A   Overcast
7:56 PM 55.9 °F - 52.0 °F 87% 30.02 in 10.0 mi ENE 4.6 mph - N/A   Overcast
8:56 PM 55.9 °F - 50.0 °F 80% 30.02 in 10.0 mi NE 6.9 mph - N/A   Overcast
9:56 PM 57.0 °F - 50.0 °F 77% 30.01 in 10.0 mi ENE 10.4 mph - N/A   Mostly Cloudy
10:25 PM 55.9 °F - 50.0 °F 80% 30.01 in 10.0 mi NE 6.9 mph - N/A Thunderstorm Thunderstorm
10:56 PM 55.9 °F - 50.0 °F 80% 30.00 in 10.0 mi NNE 9.2 mph - 0.00 in Rain , Thunderstorm Light Thunderstorms and Rain
11:56 PM 53.1 °F - 52.0 °F 96% 30.02 in 4.0 mi North - - 0.09 in Rain , Thunderstorm Heavy Thunderstorms and Rain